Home   Weather   Eisenhüttenstadt   Past weeks

Flag for Germany Past Weather in Eisenhüttenstadt, Brandenburg, Germany — Yesterday and Last 2 Weeks

Now
23 °F

Light freezing rain. Low clouds.


Feels Like: 23 °F
Forecast: 28 / 30 °F
Wind: 1 mph from West

Location: Zielona Gora

Current Time: Jan 24, 2017 at 2:10:27 am

Latest Report: Jan 24, 2017 at 1:00 am


Visibility: 2 mi

Pressure: 30.30 "Hg

Humidity: 97%

Dew Point: 22 °F

Location of EisenhüttenstadtLocation

Past Weather in Eisenhüttenstadt — Graph

°F

Eisenhüttenstadt Temperature Yesterday

Maximum temperature yesterday: 31 °F (at 1:00 pm)
Minimum temperature yesterday: 20 °F (at 7:00 pm)
Average temperature yesterday: 26 °F

High & Low Weather Summary for the Past Weeks

 TemperatureHumidityPressure
High40 °F (Jan 13, 11:00 am)100% (Jan 9, 9:00 pm)30.78 "Hg (Jan 9, 9:00 pm)
Low10 °F (Jan 11, 8:00 am)61% (Jan 13, 11:00 am)29.12 "Hg (Jan 13, 9:00 am)
Average27 °F93%30.19 "Hg
* Reported Jan 9 12:00 am — Jan 24 12:00 am, Eisenhüttenstadt, Weather by CustomWeather, © 2017

Note: Actual official high and low records may vary slightly from our data, if they occured in-between our weather recording intervals... More about our weather records

Advertising

Eisenhüttenstadt Weather History for the Previous 24 Hours

Scroll right to see more
 ConditionsComfort  
Time TempWeatherWind HumidityBarometerVisibility
12:00 am
Tue, Jan 24
22 °FLight freezing rain. Low clouds.1 mph97%30.31 "Hg1 mi
11:00 pm
Mon, Jan 23
22 °FLight freezing rain. Low clouds.2 mph97%30.31 "Hg1 mi
10:00 pm21 °FLight freezing rain. Low clouds.2 mph97%30.31 "Hg1 mi
9:00 pm21 °FLight freezing rain. Low clouds.2 mph97%30.30 "Hg1 mi
8:00 pm21 °FFog.2 mph96%30.29 "Hg1 mi
7:00 pm20 °FFog.2 mph93%30.28 "Hg2 mi
6:00 pm22 °FFog.3 mph86%30.28 "Hg2 mi
5:00 pm26 °FFog.2 mph77%30.27 "Hg4 mi
4:00 pm28 °FFog.2 mph72%30.26 "Hg5 mi
3:00 pm30 °FSunny.3 mph69%30.26 "Hg5 mi
2:00 pm31 °FSunny.3 mph69%30.25 "Hg5 mi
1:00 pm31 °FSunny.3 mph68%30.25 "Hg5 mi
12:00 pm31 °FFog.5 mph70%30.27 "Hg5 mi
11:00 am29 °FFog.6 mph72%30.28 "Hg5 mi
10:00 am28 °FFog.3 mph75%30.28 "Hg5 mi
9:00 am26 °FFog.2 mph79%30.29 "Hg5 mi
8:00 am25 °FFog.1 mph97%30.28 "Hg2 mi
7:00 am24 °FFog.1 mph97%30.28 "Hg1 mi
6:00 am24 °FFog.1 mph95%30.28 "Hg2 mi
5:00 am26 °FFog.1 mph80%30.29 "Hg4 mi
4:00 am28 °FFog.2 mph77%30.30 "Hg4 mi
3:00 am28 °FFog.2 mph80%30.30 "Hg3 mi
2:00 am28 °FFog.1 mph89%30.31 "Hg2 mi
Weather by CustomWeather, © 2017

See weather overviewHow to use our weather pages